Вернуться в каталог

PEGASUS R/B

АктивенLEO
NORAD 23548·ROCKET BODY·🇺🇸 United States

Запущен Apr 3, 1995 с Vandenberg Space Force Base

Loading…

Ближайшие Пролёты (ближайшие 24 часа)

TLE

СвежийSource: Space-Track

Эпоха: Sep 14, 2026, 10:51 UTC

1 23548U 95017D   26257.45268503  .00000189  00000-0  60830-4 0  9998
2 23548  69.9888 316.0671 0011510 329.4700  41.7236 14.53181032663623

Отслеживайте PEGASUS R/B в реальном времени с AllMySat

Download on the App Store